星链-30882 (STARLINK-30882 )

导读 | 星芒AI

STARLINK-30882 是 SpaceX Starlink 卫星互联网项目中的一颗低轨卫星,属于第三代星链卫星(v1.5 或 v2 架构)。该卫星于2023年发射,运行在约550公里高度的近地轨道,旨在为全球用户提供高速、低延迟的宽带互联网服务。它采用先进的推进系统和激光通信技术,提高网络效率和卫星自主性。STARLINK-30882 是 SpaceX 扩大全球覆盖、优化星链网络性能计划的一部分。

基本信息
目录编号:
58379
目录名称:
STARLINK-30882
国际标识:
2023-178F
轨道中心:
EARTH
卫星名称:
星链-30882
卫星全名:
星链-30882 (STARLINK-30882 )
卫星状态:
在轨 (已飞行711 天)
发射日期:
2023-11-20 UTC
国别 :
美国 (US)
星等 :
--
轨道信息
数据来源 国际轨道数据 AOE轨道数据
星历时间 2025-10-31T10:54:43+0800
10小时前
查看轨道信息
2025-10-30T11:00:00+0800
1天前
查看轨道信息
半长轴 6853.394km 6853.362km
偏心率 0.0001391 0.0000285
轨道倾角 53.160° 53.158°
近地点辐角 94.617° 71.121°
升交点赤经 242.926° 247.557°
平近点角 265.499° 197.475°
近地点 474.305km 475.031km
远地点 476.213km 475.423km
周期 94.106分钟 94.106分钟
每日圈数 15.301861 15.301967
详细信息
固有亮度:
5
最大亮度:
0.3
卫星平台:
Starlink v2.0 mini
覆盖范围:
全球
运营商:
太空探索技术公司
运营商所在国:
美国
制造商(研发单位):
太空探索技术公司
制造商所在国:
美国
使用方式:
暂无
卫星简介
星链(Starlink)计划是由太空探索技术公司(SpaceX)提出的一个巨型低轨卫星互联网星座项目,计划在2019年至2024年间在太空搭建由约1.2万颗卫星组成的“星链”网络,其中1584颗将部署在地球上空550千米处的近地轨道,并从2020年开始工作。该卫星仍在工作。
2D轨道图
3D轨道图
轨道高度分析图
轨道倾角分析图
轨道综合分析图
查看轨道综合分析图